Location: Sternwarte ZA, Rosenfeld-Brittheim
(48.2889°N, 8.6789°E)
Time: 16:48:50
(UTC+02:00)

ISS - Pass Details

Date: 17 July 2018
Orbit: 402 x 408 km, 51.6° (Epoch: 20 July)

Event Time Altitude Azimuth Distance (km) Brightness Sun altitude
Rises 04:49:38 0° 291° (WNW) 2,334 -0.2 -7.6°
Reaches altitude 10° 04:51:43 10° 292° (WNW) 1,472 -1.2 -7.4°
Maximum altitude 04:55:01 89° 27° (NNE) 413 -3.8 -7.0°
Drops below altitude 10° 04:58:19 10° 113° (ESE) 1,469 -0.6 -6.6°
Sets 05:00:24 0° 113° (ESE) 2,327 0.4 -6.3°
